Regional Weather Roundup
Issued by NWS

Home | Current Version | Previous Version | Graphics & Text | Print | Product List | Glossary On
Versions: 1 2 3 4 5 6 7 8 9 10 11 12 13 14 15 16 17 18 19 20 21 22 23 24 25 26 27 28 29 30 31 32 33 34 35 36 37 38 39 40 41 42 43 44 45 46 47 48 49 50
000
ASUS43 KMKX 251211
RWRWI

WISCONSIN REGIONAL WEATHER ROUNDUP
NATIONAL WEATHER SERVICE MILWAUKEE/SULLIVAN WI
600 AM CST SUN JAN 25 2015

NOTE: "FAIR" INDICATES FEW OR NO CLOUDS BELOW 12,000 FEET WITH NO
SIGNIFICANT WEATHER AND/OR OBSTRUCTIONS TO VISIBILITY.

WIZ001-002-006>008-014>016-023>028-251300-
NORTHWEST WISCONSIN

CITY           SKY/WX    TMP DP  RH WIND       PRES   REMARKS
SUPERIOR ARPT  CLOUDY    20  17  85 NE13      29.99R WCI   8
6HR MIN TEMP:  20; 6HR MAX TEMP:  24;

ASHLAND        CLOUDY    19  12  74 E3        29.97R
6HR MIN TEMP:  18; 6HR MAX TEMP:  20; 6HR PCP: TRACE;

HAYWARD        CLOUDY    15   7  70 NE6       29.92R WCI   6
6HR MIN TEMP:  14; 6HR MAX TEMP:  21;

SIREN          MOCLDY    19  10  70 NE6       29.95R WCI  10
6HR MIN TEMP:  19; 6HR MAX TEMP:  25;

CUMBERLAND     CLOUDY    14   9  79 NE12      29.89R WCI   0
RICE LAKE      CLOUDY    17  10  77 NE15      29.91R WCI   2
6HR MIN TEMP:  17; 6HR MAX TEMP:  31;

CHETEK         CLOUDY    17  10  73 N9G16     29.90R WCI   6
6HR MIN TEMP:  17; 6HR MAX TEMP:  30;

LADYSMITH      MOCLDY    16  10  77 NE9       29.91R WCI   4
6HR MIN TEMP:  16; 6HR MAX TEMP:  28;

EAU CLAIRE     CLOUDY    24  16  71 NE13      29.86R WCI  12
6HR MIN TEMP:  24; 6HR MAX TEMP:  35;

MENOMONIE      CLOUDY    24  17  74 N14       29.87R WCI  12
6HR MIN TEMP:  24; 6HR MAX TEMP:  36;

NEW RICHMOND   CLOUDY    20  13  72 NE16      29.90R WCI   6
6HR MIN TEMP:  20; 6HR MAX TEMP:  33;

OSCEOLA        CLOUDY    21  13  71 N16       29.94R WCI   7
6HR MIN TEMP:  21; 6HR MAX TEMP:  32;

$$

WIZ003>005-009-010-017-018-251300-
NORTH CENTRAL WISCONSIN

CITY           SKY/WX    TMP DP  RH WIND       PRES   REMARKS
MANITOWISH WTR FLURRIES  13   8  82 E10       29.89R WCI  -1
6HR MIN TEMP:   9; 6HR MAX TEMP:  14;

ARBOR VITAE    FLURRIES  17  11  79 E8        29.88R WCI   6
6HR MIN TEMP:  13; 6HR MAX TEMP:  18;

WOODRUFF       FLURRIES  17  11  79 E8        29.88R WCI   6
6HR MIN TEMP:  13; 6HR MAX TEMP:  18;

RHINELANDER    CLOUDY    14   7  73 NE13      29.87R WCI   0
6HR MIN TEMP:  13; 6HR MAX TEMP:  18;

EAGLE RIVER    CLOUDY    13   6  73 E14       29.88R WCI  -2
6HR MIN TEMP:  13; 6HR MAX TEMP:  14;

LAND O LAKES   LGT SNOW  13   9  82 NE5       29.91R WCI   5
6HR MIN TEMP:  11; 6HR MAX TEMP:  15;

PHILLIPS       CLOUDY    11   7  82 NE9       29.88R WCI  -1
6HR MIN TEMP:  11; 6HR MAX TEMP:  21;

TOMAHAWK       CLOUDY    14   8  76 NE9       29.88R WCI   2
6HR MIN TEMP:  14; 6HR MAX TEMP:  22;

MEDFORD        CLOUDY    15   9  76 NE9       29.84R WCI   3
6HR MIN TEMP:  15; 6HR MAX TEMP:  28;

MERRILL        CLOUDY    16   9  76 E6        29.87R WCI   7
6HR MIN TEMP:  16; 6HR MAX TEMP:  27;

$$

WIZ029-030-035-036-043>047-251300-
CENTRAL WISCONSIN

CITY           SKY/WX    TMP DP  RH WIND       PRES   REMARKS
WAUSAU         CLOUDY    17   9  70 NE12      29.85R WCI   4
6HR MIN TEMP:  17; 6HR MAX TEMP:  30;

MOSINEE        CLOUDY    18  12  79 NE12      29.85R WCI   5
MARSHFIELD     CLOUDY    22  13  68 E16       29.83R WCI   8
6HR MIN TEMP:  22; 6HR MAX TEMP:  32;

STEVENS POINT  CLOUDY    18  10  73 NE9G17    29.86R WCI   6
6HR MIN TEMP:  18; 6HR MAX TEMP:  28;

WAUPACA        CLOUDY    23  13  66 NE12      29.88R WCI  11
6HR MIN TEMP:  23; 6HR MAX TEMP:  28;

WAUTOMA        MOCLDY    21  14  74 NE14G21   29.87R WCI   8
6HR MIN TEMP:  21; 6HR MAX TEMP:  29;

WISC RAPIDS    CLOUDY    20  11  68 E15G21    29.86R WCI   6
6HR MIN TEMP:  20; 6HR MAX TEMP:  30;

CAMP DOUGLAS   CLOUDY    23  19  84 E12G21    29.83R WCI  11
6HR MIN TEMP:  23; 6HR MAX TEMP:  32; 6HR PCP: TRACE;

$$

WIZ011>013-019>022-031-037>040-048>050-251300-
NORTHEAST WISCONSIN

CITY           SKY/WX    TMP DP  RH WIND       PRES   REMARKS
ANTIGO         CLOUDY    14   8  78 NE15      29.86R WCI  -1
6HR MIN TEMP:  13; 6HR MAX TEMP:  22;

SHAWANO        CLOUDY    21  12  68 NE15G21   29.91R WCI   8
6HR MIN TEMP:  21; 6HR MAX TEMP:  27;

OCONTO         CLOUDY    18  13  79 MISG      29.94R
6HR MIN TEMP:  18; 6HR MAX TEMP:  21;

STURGEON BAY   CLOUDY    16   7  67 NE15      29.94R WCI   1
6HR MIN TEMP:  16; 6HR MAX TEMP:  21;

GREEN BAY      CLOUDY    20  13  74 NE24G31   29.90R WCI   3
6HR MIN TEMP:  20; 6HR MAX TEMP:  23;

MANITOWOC      CLOUDY    24  18  77 NE13G21   29.88R WCI  12
6HR MIN TEMP:  23; 6HR MAX TEMP:  26;

APPLETON       CLOUDY    19  10  68 NE18G26   29.86R WCI   4
CLINTONVILLE   CLOUDY    21  12  68 E12G18    29.89R WCI   9
OSHKOSH        CLOUDY    21  13  71 NE20G26   29.85R WCI   6
6HR MIN TEMP:  21; 6HR MAX TEMP:  28;

$$

WIZ032>034-041-042-053>061-251300-
SOUTHWEST WISCONSIN

CITY           SKY/WX    TMP DP  RH WIND       PRES   REMARKS
LA CROSSE      CLOUDY    30  23  75 E9G20     29.81R WCI  22
6HR MIN TEMP:  30; 6HR MAX TEMP:  37; 6HR PCP: TRACE;

SPARTA         CLOUDY    25  20  80 E12       29.83R WCI  15
6HR MIN TEMP:  25; 6HR MAX TEMP:  34;

VIROQUA        CLOUDY    26  25  97 E15       29.77R WCI  13
6HR MIN TEMP:  26; 6HR MAX TEMP:  33;

BOSCOBEL       FLURRIES  29  23  78 E13G23    29.78R WCI  19
6HR MIN TEMP:  29; 6HR MAX TEMP:  35; 6HR PCP: TRACE;

PRAIRIE DU CHI LGT SNOW  32  28  84 NE10G17   29.75R WCI  24
6HR MIN TEMP:  32; 6HR MAX TEMP:  36;

PLATTEVILLE    CLOUDY    30  27  88 NE22G30   29.71R WCI  17
6HR MIN TEMP:  30; 6HR MAX TEMP:  34;

$$

WIZ056-057-062-063-064-067-068-251300-
SOUTH CENTRAL WISCONSIN

CITY           SKY/WX    TMP DP  RH WIND       PRES   REMARKS
REEDSBURG      MIX PCPN  22  17  78 NE16G23   29.81R WCI   9
6HR MIN TEMP:  22; 6HR MAX TEMP:  32;

BARABOO/DELLS  CLOUDY    22  17  81 NE13G20   29.81R WCI  10
6HR MIN TEMP:  22; 6HR MAX TEMP:  31;

LONE ROCK      CLOUDY    26  20  77 E15       29.80R WCI  14
6HR MIN TEMP:  26; 6HR MAX TEMP:  34; 6HR PCP: TRACE;

MINERAL POINT  LGT SNOW  30  27  86 NE24      29.71R WCI  16
MADISON        LGT SNOW  25  20  81 NE17      29.79R WCI  12
6HR MIN TEMP:  25; 6HR MAX TEMP:  33; 6HR PCP: TRACE;

MIDDLETON      CLOUDY    26  22  84 NE13      29.79R WCI  15
6HR MIN TEMP:  26; 6HR MAX TEMP:  34;

WATERTOWN      CLOUDY    26  22  85 NE12G20   29.78R WCI  15
6HR MIN TEMP:  26; 6HR MAX TEMP:  32;

MONROE         CLOUDY    28  27  93 NE16G28   29.72R WCI  17
JANESVILLE     FLURRIES  30  27  86 NE14G22   29.74R WCI  20
$$

WIZ051-052-058>065-066-070>072-251300-
SOUTHEAST WISCONSIN

CITY           SKY/WX    TMP DP  RH WIND       PRES   REMARKS
MILWAUKEE      LGT SNOW  28  22  78 NE21G32   29.79R WCI  15
6HR MIN TEMP:  28; 6HR MAX TEMP:  34; 6HR PCP: TRACE;

WAUKESHA       CLOUDY    27  21  80 NE17G29   29.78R WCI  14
MILWAUKEE/TIMM FLURRIES  28  21  74 NE20G25   29.79R WCI  15
RACINE         FLURRIES  29  22  75 NE23G32   29.79R WCI  15
6HR MIN TEMP:  29; 6HR MAX TEMP:  34; 6HR PCP: TRACE;

BURLINGTON     LGT SNOW  27  24  89 NE16      29.77R WCI  15
6HR MIN TEMP:  27; 6HR MAX TEMP:  31;

KENOSHA        FLURRIES  29  25  85 NE21G28   29.77R WCI  16
6HR MIN TEMP:  29; 6HR MAX TEMP:  34; 6HR PCP: TRACE;

FOND DU LAC    CLOUDY    23  15  71 NE16      29.84S WCI  10
6HR MIN TEMP:  23; 6HR MAX TEMP:  29;

SHEBOYGAN      CLOUDY    26  19  74 NE25      29.84R WCI  11
6HR MIN TEMP:  24; 6HR MAX TEMP:  27;

WEST BEND      CLOUDY    27  21  80 NE15      29.80R WCI  15
JUNEAU         CLOUDY    23  18  81 NE15G22   29.81R WCI  10
6HR MIN TEMP:  23; 6HR MAX TEMP:  31;

$$

LSZ147-162-251300-
LAKE SUPERIOR

STATION/POSITION TIME  TEMP    WIND        PRES    WAVE
                       AIR SEA DIR/SP/G            HT/PER
                 (UTC) (F)     (DEG/KT/KT) (MB)    (FT/S)
DEVILS ISLAND    1200   21      70/ 19/ 25 1017.3R
PORT WING        1140   22      70/  9/ 13 1015.6R
SAXON HARBOR     1100   20      80/  5/  9 1014.9
$$

LMZ867-665-643>646-251300-
LAKE MICHIGAN

STATION/POSITION TIME  TEMP    WIND        PRES    WAVE


USA.gov is the U.S. government's official web portal to all federal, state and local government web resources and services.